Wetterdaten: Mittwoch, 28.09.2011
Datum Zeit Temp. A. Feuchte A. Luftdruck Regen Wind Richtung Richtung Sonnenschein UV Solar Windben
28.09.2011 00:00 13,3 C 92 % 1030,3 hPa 0,0 mm 0,0 km/h (0 Bft) N 0 0 min 0 UV-I 0 W/m 0,0 km/h (0 Bft)
28.09.2011 00:10 13,2 C 92 % 1030,3 hPa 0,0 mm 0,0 km/h (0 Bft) N 0 0 min 0 UV-I 0 W/m 0,0 km/h (0 Bft)
28.09.2011 00:20 13,1 C 92 % 1030,3 hPa 0,0 mm 0,0 km/h (0 Bft) N 0 0 min 0 UV-I 0 W/m 0,0 km/h (0 Bft)
28.09.2011 00:30 13,0 C 92 % 1030,3 hPa 0,0 mm 0,0 km/h (0 Bft) N 0 0 min 0 UV-I 0 W/m 0,0 km/h (0 Bft)
28.09.2011 00:40 13,1 C 92 % 1030,3 hPa 0,0 mm 0,0 km/h (0 Bft) N 0 0 min 0 UV-I 0 W/m 0,0 km/h (0 Bft)
28.09.2011 00:50 12,9 C 92 % 1030,4 hPa 0,0 mm 0,0 km/h (0 Bft) N 0 0 min 0 UV-I 0 W/m 0,0 km/h (0 Bft)
28.09.2011 01:00 12,8 C 93 % 1030,4 hPa 0,0 mm 0,0 km/h (0 Bft) N 0 0 min 0 UV-I 0 W/m 0,0 km/h (0 Bft)
28.09.2011 01:10 12,7 C 92 % 1030,4 hPa 0,0 mm 0,0 km/h (0 Bft) N 0 0 min 0 UV-I 0 W/m 0,0 km/h (0 Bft)
28.09.2011 01:20 12,5 C 93 % 1030,4 hPa 0,0 mm 0,0 km/h (0 Bft) N 0 0 min 0 UV-I 0 W/m 0,0 km/h (0 Bft)
28.09.2011 01:30 12,4 C 92 % 1030,4 hPa 0,0 mm 0,0 km/h (0 Bft) N 0 0 min 0 UV-I 0 W/m 0,0 km/h (0 Bft)
28.09.2011 01:40 12,3 C 93 % 1030,5 hPa 0,0 mm 0,0 km/h (0 Bft) N 0 0 min 0 UV-I 0 W/m 0,0 km/h (0 Bft)
28.09.2011 01:50 12,3 C 93 % 1030,4 hPa 0,0 mm 0,0 km/h (0 Bft) N 0 0 min 0 UV-I 0 W/m 0,0 km/h (0 Bft)
28.09.2011 02:00 12,2 C 93 % 1030,4 hPa 0,0 mm 0,0 km/h (0 Bft) N 0 0 min 0 UV-I 0 W/m 0,0 km/h (0 Bft)
28.09.2011 02:10 12,1 C 93 % 1030,3 hPa 0,0 mm 0,0 km/h (0 Bft) N 0 0 min 0 UV-I 0 W/m 0,0 km/h (0 Bft)
28.09.2011 02:20 11,9 C 93 % 1030,4 hPa 0,0 mm 0,0 km/h (0 Bft) N 0 0 min 0 UV-I 0 W/m 0,0 km/h (0 Bft)
28.09.2011 02:30 11,9 C 93 % 1030,4 hPa 0,0 mm 0,0 km/h (0 Bft) N 0 0 min 0 UV-I 0 W/m 0,0 km/h (0 Bft)
28.09.2011 02:40 11,8 C 93 % 1030,3 hPa 0,0 mm 0,0 km/h (0 Bft) N 0 0 min 0 UV-I 0 W/m 0,0 km/h (0 Bft)
28.09.2011 02:50 11,6 C 93 % 1030,3 hPa 0,0 mm 0,0 km/h (0 Bft) N 0 0 min 0 UV-I 0 W/m 0,0 km/h (0 Bft)
28.09.2011 03:00 11,6 C 93 % 1030,2 hPa 0,0 mm 0,0 km/h (0 Bft) N 0 0 min 0 UV-I 0 W/m 0,0 km/h (0 Bft)
28.09.2011 03:10 11,5 C 93 % 1030,2 hPa 0,0 mm 0,0 km/h (0 Bft) N 0 0 min 0 UV-I 0 W/m 0,0 km/h (0 Bft)
28.09.2011 03:20 11,4 C 93 % 1030,2 hPa 0,0 mm 0,0 km/h (0 Bft) N 0 0 min 0 UV-I 0 W/m 0,0 km/h (0 Bft)
28.09.2011 03:30 11,3 C 93 % 1030,2 hPa 0,0 mm 0,0 km/h (0 Bft) N 0 0 min 0 UV-I 0 W/m 0,0 km/h (0 Bft)
28.09.2011 03:40 11,2 C 93 % 1030,1 hPa 0,0 mm 0,0 km/h (0 Bft) N 0 0 min 0 UV-I 0 W/m 0,0 km/h (0 Bft)
28.09.2011 03:50 11,1 C 93 % 1030,1 hPa 0,0 mm 0,0 km/h (0 Bft) N 0 0 min 0 UV-I 0 W/m 0,0 km/h (0 Bft)
28.09.2011 04:00 11,1 C 93 % 1030,1 hPa 0,0 mm 0,0 km/h (0 Bft) N 0 0 min 0 UV-I 0 W/m 0,0 km/h (0 Bft)
28.09.2011 04:10 11,1 C 93 % 1030,1 hPa 0,0 mm 0,0 km/h (0 Bft) N 0 0 min 0 UV-I 0 W/m 0,0 km/h (0 Bft)
28.09.2011 04:20 11,0 C 93 % 1030,0 hPa 0,0 mm 0,0 km/h (0 Bft) N 0 0 min 0 UV-I 0 W/m 0,0 km/h (0 Bft)
28.09.2011 04:30 10,9 C 93 % 1030,1 hPa 0,0 mm 0,0 km/h (0 Bft) N 0 0 min 0 UV-I 0 W/m 0,0 km/h (0 Bft)
28.09.2011 04:40 10,9 C 93 % 1030,0 hPa 0,0 mm 0,0 km/h (0 Bft) N 0 0 min 0 UV-I 0 W/m 0,0 km/h (0 Bft)
28.09.2011 04:50 11,0 C 93 % 1030,1 hPa 0,0 mm 0,0 km/h (0 Bft) N 0 0 min 0 UV-I 0 W/m 0,0 km/h (0 Bft)
28.09.2011 05:00 10,9 C 93 % 1030,2 hPa 0,0 mm 0,0 km/h (0 Bft) N 0 0 min 0 UV-I 0 W/m 0,0 km/h (0 Bft)
28.09.2011 05:10 10,7 C 93 % 1030,2 hPa 0,0 mm 0,0 km/h (0 Bft) N 0 0 min 0 UV-I 0 W/m 0,0 km/h (0 Bft)
28.09.2011 05:20 10,6 C 93 % 1030,2 hPa 0,0 mm 0,0 km/h (0 Bft) N 0 0 min 0 UV-I 0 W/m 0,0 km/h (0 Bft)
28.09.2011 05:30 10,7 C 93 % 1030,2 hPa 0,0 mm 0,0 km/h (0 Bft) N 0 0 min 0 UV-I 0 W/m 0,0 km/h (0 Bft)
28.09.2011 05:40 10,7 C 93 % 1030,4 hPa 0,0 mm 0,0 km/h (0 Bft) N 0 0 min 0 UV-I 0 W/m 0,0 km/h (0 Bft)
28.09.2011 05:50 10,6 C 93 % 1030,4 hPa 0,0 mm 0,0 km/h (0 Bft) N 0 0 min 0 UV-I 0 W/m 0,0 km/h (0 Bft)
28.09.2011 06:00 10,6 C 93 % 1030,4 hPa 0,0 mm 0,0 km/h (0 Bft) N 0 0 min 0 UV-I 0 W/m 0,0 km/h (0 Bft)
28.09.2011 06:10 10,5 C 93 % 1030,2 hPa 0,0 mm 0,0 km/h (0 Bft) N 0 0 min 0 UV-I 0 W/m 0,0 km/h (0 Bft)
28.09.2011 06:20 10,4 C 93 % 1030,4 hPa 0,0 mm 0,0 km/h (0 Bft) N 0 0 min 0 UV-I 0 W/m 0,0 km/h (0 Bft)
28.09.2011 06:30 10,4 C 93 % 1030,3 hPa 0,0 mm 0,0 km/h (0 Bft) N 0 0 min 0 UV-I 0 W/m 0,0 km/h (0 Bft)
28.09.2011 06:40 10,4 C 93 % 1030,2 hPa 0,0 mm 0,0 km/h (0 Bft) N 0 0 min 0 UV-I 0 W/m 0,0 km/h (0 Bft)
28.09.2011 06:50 10,3 C 93 % 1030,1 hPa 0,0 mm 0,0 km/h (0 Bft) N 0 0 min 0 UV-I 0 W/m 0,0 km/h (0 Bft)
28.09.2011 07:00 10,3 C 93 % 1030,2 hPa 0,0 mm 0,0 km/h (0 Bft) N 0 0 min 0 UV-I 0 W/m 0,0 km/h (0 Bft)
28.09.2011 07:10 10,4 C 93 % 1030,3 hPa 0,0 mm 0,0 km/h (0 Bft) N 0 0 min 0 UV-I 0 W/m 0,0 km/h (0 Bft)
28.09.2011 07:20 10,3 C 93 % 1030,4 hPa 0,0 mm 0,0 km/h (0 Bft) N 0 0 min 0 UV-I 0 W/m 0,0 km/h (0 Bft)
28.09.2011 07:30 10,3 C 93 % 1030,3 hPa 0,0 mm 0,0 km/h (0 Bft) N 0 0 min 0 UV-I 7 W/m 0,0 km/h (0 Bft)
28.09.2011 07:40 10,4 C 94 % 1030,4 hPa 0,0 mm 0,0 km/h (0 Bft) N 0 0 min 0 UV-I 12 W/m 0,0 km/h (0 Bft)
28.09.2011 07:50 10,6 C 94 % 1030,4 hPa 0,0 mm 0,0 km/h (0 Bft) N 0 0 min 0 UV-I 21 W/m 0,0 km/h (0 Bft)
28.09.2011 08:00 10,9 C 94 % 1030,3 hPa 0,0 mm 0,2 km/h (0 Bft) NW 321 0 min 0 UV-I 29 W/m 3,2 km/h (1 Bft)
28.09.2011 08:10 11,4 C 94 % 1030,3 hPa 0,0 mm 1,6 km/h (1 Bft) NW 315 0 min 0 UV-I 40 W/m 4,8 km/h (1 Bft)
28.09.2011 08:20 12,3 C 94 % 1030,2 hPa 0,0 mm 0,0 km/h (0 Bft) NW 315 0 min 0 UV-I 65 W/m 6,4 km/h (2 Bft)
28.09.2011 08:30 12,7 C 94 % 1030,1 hPa 0,0 mm 0,0 km/h (0 Bft) NW 315 0 min 0 UV-I 81 W/m 4,8 km/h (1 Bft)
28.09.2011 08:40 13,1 C 94 % 1030,1 hPa 0,0 mm 1,6 km/h (1 Bft) NW 315 0 min 1 UV-I 102 W/m 4,8 km/h (1 Bft)
28.09.2011 08:50 13,6 C 95 % 1030,0 hPa 0,0 mm 3,2 km/h (1 Bft) N-NW 337 0 min 1 UV-I 114 W/m 6,4 km/h (2 Bft)
28.09.2011 09:00 14,1 C 95 % 1030,1 hPa 0,0 mm 4,8 km/h (1 Bft) NO 45 10 min 1 UV-I 148 W/m 14,5 km/h (3 Bft)
28.09.2011 09:10 14,4 C 94 % 1030,1 hPa 0,0 mm 3,2 km/h (1 Bft) O-NO 67 10 min 1 UV-I 174 W/m 9,7 km/h (2 Bft)
28.09.2011 09:20 14,5 C 94 % 1030,1 hPa 0,0 mm 1,6 km/h (1 Bft) O-NO 67 10 min 1 UV-I 174 W/m 11,3 km/h (2 Bft)
28.09.2011 09:30 14,7 C 94 % 1030,1 hPa 0,0 mm 3,2 km/h (1 Bft) O-NO 67 10 min 1 UV-I 211 W/m 14,5 km/h (3 Bft)
28.09.2011 09:40 14,9 C 94 % 1030,1 hPa 0,0 mm 3,2 km/h (1 Bft) O-NO 67 10 min 1 UV-I 250 W/m 11,3 km/h (2 Bft)
28.09.2011 09:50 15,0 C 94 % 1030,1 hPa 0,0 mm 3,2 km/h (1 Bft) O-NO 67 10 min 1 UV-I 225 W/m 9,7 km/h (2 Bft)
28.09.2011 10:00 15,3 C 93 % 1030,2 hPa 0,0 mm 3,2 km/h (1 Bft) O-NO 67 10 min 1 UV-I 301 W/m 11,3 km/h (2 Bft)
28.09.2011 10:10 15,8 C 92 % 1030,4 hPa 0,0 mm 4,8 km/h (1 Bft) O 90 10 min 2 UV-I 323 W/m 11,3 km/h (2 Bft)
28.09.2011 10:20 16,3 C 91 % 1030,5 hPa 0,0 mm 3,2 km/h (1 Bft) O 90 10 min 2 UV-I 355 W/m 11,3 km/h (2 Bft)
28.09.2011 10:30 16,7 C 89 % 1030,5 hPa 0,0 mm 3,2 km/h (1 Bft) O 90 10 min 2 UV-I 378 W/m 11,3 km/h (2 Bft)
28.09.2011 10:40 17,2 C 87 % 1030,5 hPa 0,0 mm 4,8 km/h (1 Bft) O 90 10 min 2 UV-I 394 W/m 14,5 km/h (3 Bft)
28.09.2011 10:50 17,4 C 86 % 1030,3 hPa 0,0 mm 4,8 km/h (1 Bft) O 90 10 min 2 UV-I 420 W/m 14,5 km/h (3 Bft)
28.09.2011 11:00 17,9 C 83 % 1030,3 hPa 0,0 mm 3,2 km/h (1 Bft) O 90 10 min 2 UV-I 441 W/m 11,3 km/h (2 Bft)
28.09.2011 11:10 18,1 C 82 % 1030,3 hPa 0,0 mm 3,2 km/h (1 Bft) O-SO 112 10 min 3 UV-I 464 W/m 11,3 km/h (2 Bft)
28.09.2011 11:20 18,3 C 81 % 1030,3 hPa 0,0 mm 3,2 km/h (1 Bft) O-SO 112 10 min 3 UV-I 471 W/m 16,1 km/h (3 Bft)
28.09.2011 11:30 18,4 C 81 % 1030,4 hPa 0,0 mm 8,0 km/h (2 Bft) O-SO 112 10 min 3 UV-I 496 W/m 16,1 km/h (3 Bft)
28.09.2011 11:40 18,6 C 80 % 1030,4 hPa 0,0 mm 6,4 km/h (2 Bft) O 90 10 min 3 UV-I 506 W/m 16,1 km/h (3 Bft)
28.09.2011 11:50 18,7 C 79 % 1030,2 hPa 0,0 mm 6,4 km/h (2 Bft) O 90 10 min 3 UV-I 520 W/m 17,7 km/h (3 Bft)
28.09.2011 12:00 18,8 C 79 % 1030,1 hPa 0,0 mm 6,4 km/h (2 Bft) O 90 10 min 3 UV-I 540 W/m 14,5 km/h (3 Bft)
28.09.2011 12:10 19,1 C 78 % 1030,2 hPa 0,0 mm 4,8 km/h (1 Bft) O-SO 112 10 min 3 UV-I 548 W/m 17,7 km/h (3 Bft)
28.09.2011 12:20 19,4 C 77 % 1030,2 hPa 0,0 mm 4,8 km/h (1 Bft) O 90 10 min 4 UV-I 554 W/m 16,1 km/h (3 Bft)
28.09.2011 12:30 19,7 C 76 % 1030,2 hPa 0,0 mm 3,2 km/h (1 Bft) O 90 10 min 4 UV-I 554 W/m 16,1 km/h (3 Bft)
28.09.2011 12:40 19,7 C 75 % 1030,2 hPa 0,0 mm 4,8 km/h (1 Bft) O-SO 112 10 min 4 UV-I 570 W/m 16,1 km/h (3 Bft)
28.09.2011 12:50 19,6 C 75 % 1030,3 hPa 0,0 mm 4,8 km/h (1 Bft) O-SO 112 10 min 4 UV-I 578 W/m 17,7 km/h (3 Bft)
28.09.2011 13:00 19,8 C 76 % 1030,2 hPa 0,0 mm 4,8 km/h (1 Bft) O-SO 112 10 min 4 UV-I 592 W/m 16,1 km/h (3 Bft)
28.09.2011 13:10 19,9 C 75 % 1030,3 hPa 0,0 mm 4,8 km/h (1 Bft) SO 135 10 min 4 UV-I 594 W/m 14,5 km/h (3 Bft)
28.09.2011 13:20 20,2 C 74 % 1030,2 hPa 0,0 mm 4,8 km/h (1 Bft) SO 135 10 min 4 UV-I 589 W/m 11,3 km/h (2 Bft)
28.09.2011 13:30 20,3 C 74 % 1030,1 hPa 0,0 mm 3,2 km/h (1 Bft) SO 135 10 min 4 UV-I 585 W/m 9,7 km/h (2 Bft)
28.09.2011 13:40 20,6 C 72 % 1030,0 hPa 0,0 mm 4,8 km/h (1 Bft) O-SO 112 10 min 4 UV-I 592 W/m 16,1 km/h (3 Bft)
28.09.2011 13:50 20,7 C 72 % 1029,9 hPa 0,0 mm 4,8 km/h (1 Bft) O-SO 112 10 min 4 UV-I 582 W/m 11,3 km/h (2 Bft)
28.09.2011 14:00 21,1 C 71 % 1029,6 hPa 0,0 mm 4,8 km/h (1 Bft) SO 135 10 min 4 UV-I 585 W/m 12,9 km/h (3 Bft)
28.09.2011 14:10 21,5 C 70 % 1029,7 hPa 0,0 mm 3,2 km/h (1 Bft) SO 135 10 min 4 UV-I 584 W/m 12,9 km/h (3 Bft)
28.09.2011 14:20 21,7 C 70 % 1029,5 hPa 0,0 mm 4,8 km/h (1 Bft) O-SO 112 10 min 3 UV-I 573 W/m 11,3 km/h (2 Bft)
28.09.2011 14:30 21,9 C 68 % 1029,3 hPa 0,0 mm 1,6 km/h (1 Bft) SO 135 10 min 3 UV-I 566 W/m 11,3 km/h (2 Bft)
28.09.2011 14:40 22,2 C 68 % 1029,2 hPa 0,0 mm 3,2 km/h (1 Bft) SO 135 10 min 3 UV-I 566 W/m 9,7 km/h (2 Bft)
28.09.2011 14:50 22,3 C 67 % 1029,2 hPa 0,0 mm 4,8 km/h (1 Bft) O-SO 112 10 min 3 UV-I 552 W/m 14,5 km/h (3 Bft)
28.09.2011 15:00 22,4 C 67 % 1029,0 hPa 0,0 mm 4,8 km/h (1 Bft) O-SO 112 10 min 3 UV-I 540 W/m 14,5 km/h (3 Bft)
28.09.2011 15:10 22,7 C 67 % 1028,9 hPa 0,0 mm 3,2 km/h (1 Bft) O-SO 112 10 min 3 UV-I 526 W/m 9,7 km/h (2 Bft)
28.09.2011 15:20 23,1 C 65 % 1028,7 hPa 0,0 mm 4,8 km/h (1 Bft) O-SO 112 10 min 3 UV-I 519 W/m 16,1 km/h (3 Bft)
28.09.2011 15:30 23,2 C 65 % 1028,6 hPa 0,0 mm 3,2 km/h (1 Bft) O-SO 112 10 min 3 UV-I 501 W/m 9,7 km/h (2 Bft)
28.09.2011 15:40 23,3 C 64 % 1028,4 hPa 0,0 mm 4,8 km/h (1 Bft) O-SO 112 10 min 2 UV-I 468 W/m 11,3 km/h (2 Bft)
28.09.2011 15:50 23,3 C 65 % 1028,4 hPa 0,0 mm 3,2 km/h (1 Bft) O 90 10 min 2 UV-I 455 W/m 9,7 km/h (2 Bft)
28.09.2011 16:00 23,4 C 65 % 1028,5 hPa 0,0 mm 4,6 km/h (1 Bft) O 95 10 min 2 UV-I 416 W/m 9,7 km/h (2 Bft)
28.09.2011 16:10 23,4 C 64 % 1028,6 hPa 0,0 mm 4,8 km/h (1 Bft) O 90 10 min 2 UV-I 415 W/m 12,9 km/h (3 Bft)
28.09.2011 16:20 23,3 C 64 % 1028,4 hPa 0,0 mm 4,8 km/h (1 Bft) O 90 10 min 2 UV-I 390 W/m 12,9 km/h (3 Bft)
28.09.2011 16:30 23,3 C 65 % 1028,1 hPa 0,0 mm 4,8 km/h (1 Bft) O 90 10 min 2 UV-I 364 W/m 16,1 km/h (3 Bft)
28.09.2011 16:40 23,3 C 65 % 1028,3 hPa 0,0 mm 4,8 km/h (1 Bft) O-SO 112 10 min 1 UV-I 336 W/m 14,5 km/h (3 Bft)
28.09.2011 16:50 23,3 C 64 % 1028,3 hPa 0,0 mm 3,2 km/h (1 Bft) O 90 10 min 1 UV-I 316 W/m 9,7 km/h (2 Bft)
28.09.2011 17:00 23,2 C 65 % 1028,3 hPa 0,0 mm 4,8 km/h (1 Bft) O 90 10 min 1 UV-I 290 W/m 9,7 km/h (2 Bft)
28.09.2011 17:10 23,1 C 65 % 1028,2 hPa 0,0 mm 4,8 km/h (1 Bft) O 90 10 min 1 UV-I 264 W/m 12,9 km/h (3 Bft)
28.09.2011 17:20 23,1 C 65 % 1028,1 hPa 0,0 mm 3,2 km/h (1 Bft) O 90 10 min 1 UV-I 251 W/m 11,3 km/h (2 Bft)
28.09.2011 17:30 22,9 C 65 % 1028,1 hPa 0,0 mm 3,2 km/h (1 Bft) O 90 10 min 1 UV-I 236 W/m 9,7 km/h (2 Bft)
28.09.2011 17:40 22,9 C 65 % 1028,0 hPa 0,0 mm 3,2 km/h (1 Bft) O 90 10 min 1 UV-I 220 W/m 9,7 km/h (2 Bft)
28.09.2011 17:50 22,9 C 65 % 1028,0 hPa 0,0 mm 3,2 km/h (1 Bft) O 90 10 min 1 UV-I 202 W/m 9,7 km/h (2 Bft)
28.09.2011 18:00 22,7 C 66 % 1027,9 hPa 0,0 mm 3,2 km/h (1 Bft) O 90 10 min 1 UV-I 183 W/m 8,0 km/h (2 Bft)
28.09.2011 18:10 22,3 C 67 % 1028,0 hPa 0,0 mm 3,2 km/h (1 Bft) O 90 10 min 1 UV-I 158 W/m 8,0 km/h (2 Bft)
28.09.2011 18:20 22,2 C 67 % 1027,8 hPa 0,0 mm 1,6 km/h (1 Bft) O 90 10 min 1 UV-I 135 W/m 8,0 km/h (2 Bft)
28.09.2011 18:30 22,1 C 68 % 1027,8 hPa 0,0 mm 1,6 km/h (1 Bft) O 90 10 min 0 UV-I 114 W/m 6,4 km/h (2 Bft)
28.09.2011 18:40 21,7 C 69 % 1027,8 hPa 0,0 mm 0,0 km/h (0 Bft) O 90 10 min 0 UV-I 84 W/m 4,8 km/h (1 Bft)
28.09.2011 18:50 21,3 C 71 % 1027,8 hPa 0,0 mm 1,6 km/h (1 Bft) O 90 10 min 0 UV-I 58 W/m 4,8 km/h (1 Bft)
28.09.2011 19:00 20,8 C 72 % 1027,7 hPa 0,0 mm 1,6 km/h (1 Bft) O 90 10 min 0 UV-I 30 W/m 4,8 km/h (1 Bft)
28.09.2011 19:10 20,4 C 73 % 1027,7 hPa 0,0 mm 0,0 km/h (0 Bft) O 90 0 min 0 UV-I 16 W/m 3,2 km/h (1 Bft)
28.09.2011 19:20 20,0 C 74 % 1027,8 hPa 0,0 mm 0,0 km/h (0 Bft) O 90 0 min 0 UV-I 7 W/m 3,2 km/h (1 Bft)
28.09.2011 19:30 19,6 C 76 % 1027,9 hPa 0,0 mm 0,0 km/h (0 Bft) O 90 0 min 0 UV-I 5 W/m 1,6 km/h (1 Bft)
28.09.2011 19:40 19,3 C 77 % 1028,0 hPa 0,0 mm 0,0 km/h (0 Bft) O 90 0 min 0 UV-I 0 W/m 1,6 km/h (1 Bft)
28.09.2011 19:50 18,9 C 79 % 1028,0 hPa 0,0 mm 0,0 km/h (0 Bft) N 0 0 min 0 UV-I 0 W/m 0,0 km/h (0 Bft)
28.09.2011 20:00 18,5 C 80 % 1028,0 hPa 0,0 mm 0,0 km/h (0 Bft) N 0 0 min 0 UV-I 0 W/m 0,0 km/h (0 Bft)
28.09.2011 20:10 18,1 C 81 % 1027,9 hPa 0,0 mm 0,0 km/h (0 Bft) N 0 0 min 0 UV-I 0 W/m 0,0 km/h (0 Bft)
28.09.2011 20:20 17,8 C 82 % 1028,1 hPa 0,0 mm 0,0 km/h (0 Bft) N 0 0 min 0 UV-I 0 W/m 0,0 km/h (0 Bft)
28.09.2011 20:30 17,5 C 83 % 1028,1 hPa 0,0 mm 0,0 km/h (0 Bft) N 0 0 min 0 UV-I 0 W/m 0,0 km/h (0 Bft)
28.09.2011 20:40 17,3 C 84 % 1028,2 hPa 0,0 mm 0,0 km/h (0 Bft) N 0 0 min 0 UV-I 0 W/m 0,0 km/h (0 Bft)
28.09.2011 20:50 17,1 C 85 % 1028,2 hPa 0,0 mm 0,0 km/h (0 Bft) O 90 0 min 0 UV-I 0 W/m 1,6 km/h (1 Bft)
28.09.2011 21:00 16,8 C 85 % 1028,1 hPa 0,0 mm 0,0 km/h (0 Bft) O 90 0 min 0 UV-I 0 W/m 1,6 km/h (1 Bft)
28.09.2011 21:10 16,7 C 85 % 1028,1 hPa 0,0 mm 0,0 km/h (0 Bft) O 90 0 min 0 UV-I 0 W/m 1,6 km/h (1 Bft)
28.09.2011 21:20 16,6 C 85 % 1028,1 hPa 0,0 mm 0,0 km/h (0 Bft) O 90 0 min 0 UV-I 0 W/m 1,6 km/h (1 Bft)
28.09.2011 21:30 16,5 C 85 % 1028,1 hPa 0,0 mm 0,0 km/h (0 Bft) N 0 0 min 0 UV-I 0 W/m 0,0 km/h (0 Bft)
28.09.2011 21:40 16,4 C 85 % 1028,3 hPa 0,0 mm 0,0 km/h (0 Bft) N 0 0 min 0 UV-I 0 W/m 0,0 km/h (0 Bft)
28.09.2011 21:50 16,2 C 86 % 1028,2 hPa 0,0 mm 0,0 km/h (0 Bft) O 90 0 min 0 UV-I 0 W/m 1,6 km/h (1 Bft)
28.09.2011 22:00 16,1 C 86 % 1028,3 hPa 0,0 mm 0,0 km/h (0 Bft) O 90 0 min 0 UV-I 0 W/m 1,6 km/h (1 Bft)
28.09.2011 22:10 15,8 C 87 % 1028,2 hPa 0,0 mm 0,0 km/h (0 Bft) N 0 0 min 0 UV-I 0 W/m 0,0 km/h (0 Bft)
28.09.2011 22:20 15,6 C 87 % 1028,3 hPa 0,0 mm 0,0 km/h (0 Bft) N 0 0 min 0 UV-I 0 W/m 0,0 km/h (0 Bft)
28.09.2011 22:30 15,3 C 88 % 1028,2 hPa 0,0 mm 0,0 km/h (0 Bft) N 0 0 min 0 UV-I 0 W/m 0,0 km/h (0 Bft)
28.09.2011 22:40 15,1 C 88 % 1028,2 hPa 0,0 mm 0,0 km/h (0 Bft) N 0 0 min 0 UV-I 0 W/m 0,0 km/h (0 Bft)
28.09.2011 22:50 15,0 C 88 % 1028,2 hPa 0,0 mm 0,0 km/h (0 Bft) N 0 0 min 0 UV-I 0 W/m 0,0 km/h (0 Bft)
28.09.2011 23:00 15,0 C 88 % 1028,1 hPa 0,0 mm 0,0 km/h (0 Bft) N 0 0 min 0 UV-I 0 W/m 0,0 km/h (0 Bft)
28.09.2011 23:10 14,7 C 88 % 1028,2 hPa 0,0 mm 0,0 km/h (0 Bft) N 0 0 min 0 UV-I 0 W/m 0,0 km/h (0 Bft)
28.09.2011 23:20 14,6 C 89 % 1028,2 hPa 0,0 mm 0,0 km/h (0 Bft) O 90 0 min 0 UV-I 0 W/m 1,6 km/h (1 Bft)
28.09.2011 23:30 14,6 C 89 % 1028,2 hPa 0,0 mm 0,0 km/h (0 Bft) N 0 0 min 0 UV-I 0 W/m 0,0 km/h (0 Bft)
28.09.2011 23:40 14,5 C 89 % 1028,3 hPa 0,0 mm 0,0 km/h (0 Bft) O 90 0 min 0 UV-I 0 W/m 1,6 km/h (1 Bft)
28.09.2011 23:50 14,4 C 89 % 1028,3 hPa 0,0 mm 0,0 km/h (0 Bft) N 0 0 min 0 UV-I 0 W/m 0,0 km/h (0 Bft)
_ Min-Zeit 06:20 15:40 19:00 - 00:00 - - - - - 00:00
Minimum _ 10,3 C 64 % 1027,7 hPa - 0,0 km/h (0 Bft) - - - - - 0,0 km/h (0 Bft)
_ Max-Zeit 16:00 08:50 01:40 00:00 11:30 - - 09:00 12:50 13:10 11:50
Maximum _ 23,6 C 95 % 1030,5 hPa 0,0 mm 8,0 km/h
O-SO (2 Bft)
- - 10 min 4 UV-I 594 W/m 17,7 km/h
O-SO (3 Bft)
Durchschnitt _ 16,3 C 83 % 1029,4 hPa #0,0 mm 1,7 km/h (1 Bft) O - #10:10 h 2 UV-I 336 W/m 5,5 km/h (1 Bft)